History for Norfolk, VA on Saturday, July 4, 2015

Jump to data by:

Latest visited Airport Codes: KORF

Data type:
 

« Previous Day | Next Day »

 
Daily Summary
Actual Average Record
Temperature
Mean Temperature 80 °F -  
Max Temperature 88 °F 87 °F 98 °F (1997)
Min Temperature 73 °F 71 °F 59 °F (1892)
Degree Days
Heating Degree Days 0 0  
Month to date heating degree days 0 0  
Since 1 June heating degree days 0 6  
Since 1 July heating degree days 0 0  
Cooling Degree Days 16 14  
Month to date cooling degree days 59 56  
Year to date cooling degree days 713 537  
Since 1 June cooling degree days 477 371  
Growing Degree Days 30 (Base 50)    
Moisture
Dew Point 70 °F    
Average Humidity 79    
Maximum Humidity 93    
Minimum Humidity 49    
Precipitation
Precipitation 0.17 in 0.14 in 2.73 in (1981)
Month to date precipitation 0.28 0.57  
Year to date precipitation 23.62 21.85  
Snow
Snow 0.00 in - - ()
Month to date snowfall 0.0  
Since 1 July snowfall 0.0  
Snow Depth 0.00 in    
Sea Level Pressure
Sea Level Pressure 29.88 in    
Wind
Wind Speed 7 mph ()    
Max Wind Speed 16 mph    
Max Gust Speed 23 mph    
Visibility 9.7 miles    
Events Rain   
Key: T is trace of precipitation, MM is missing value
Source: Averaged Metar Reports
Time (EDT) Temp. Dew Point Humidity Sea Level Pressure Visibility Wind Direction Wind Speed Gust Speed Precip. Events Conditions
12:13 AM 75.0 °F 72.0 °F 90% 29.87 in 7.0 miles ESE 4.6 mph - 0.00 in   Overcast
12:51 AM 75.0 °F 72.0 °F 90% 29.86 in 9.0 miles SE 3.5 mph - 0.00 in   Mostly Cloudy
1:27 AM 73.9 °F 72.0 °F 93% 29.85 in 8.0 miles SSE 3.5 mph - N/A   Scattered Clouds
1:51 AM 73.9 °F 72.0 °F 93% 29.85 in 9.0 miles South 4.6 mph - N/A   Mostly Cloudy
2:17 AM 73.9 °F 71.1 °F 91% 29.84 in 10.0 miles South 5.8 mph - N/A   Scattered Clouds
2:26 AM 73.9 °F 71.1 °F 91% 29.85 in 10.0 miles South 6.9 mph - N/A   Mostly Cloudy
2:51 AM 73.9 °F 72.0 °F 93% 29.84 in 9.0 miles South 8.1 mph - N/A   Overcast
3:19 AM 75.0 °F 72.0 °F 90% 29.82 in 10.0 miles SSW 9.2 mph - N/A   Mostly Cloudy
3:51 AM 73.9 °F 71.1 °F 91% 29.83 in 10.0 miles SW 11.5 mph - N/A   Partly Cloudy
4:26 AM 73.9 °F 71.1 °F 91% 29.82 in 10.0 miles SW 12.7 mph - N/A   Mostly Cloudy
4:51 AM 73.9 °F 71.1 °F 91% 29.82 in 10.0 miles SW 12.7 mph - N/A   Mostly Cloudy
4:56 AM 73.9 °F 71.1 °F 91% 29.82 in 10.0 miles SW 12.7 mph - N/A   Scattered Clouds
5:32 AM 73.9 °F 71.1 °F 91% 29.83 in 10.0 miles WSW 8.1 mph - N/A   Mostly Cloudy
5:51 AM 73.9 °F 71.1 °F 91% 29.84 in 10.0 miles WSW 9.2 mph - N/A   Overcast
6:51 AM 73.0 °F 69.1 °F 87% 29.87 in 10.0 miles SW 12.7 mph 19.6 mph N/A   Overcast
7:51 AM 73.0 °F 69.1 °F 87% 29.89 in 10.0 miles WSW 11.5 mph 21.9 mph N/A   Overcast
8:42 AM 75.9 °F 70.0 °F 82% 29.89 in 10.0 miles Variable 5.8 mph - N/A   Scattered Clouds
8:51 AM 75.9 °F 69.1 °F 79% 29.89 in 10.0 miles West 5.8 mph - N/A   Partly Cloudy
9:49 AM 78.8 °F 69.8 °F 74% 29.90 in 10.0 miles WSW 12.7 mph - N/A   Mostly Cloudy
9:51 AM 79.0 °F 70.0 °F 74% 29.90 in 10.0 miles WSW 10.4 mph - N/A   Mostly Cloudy
10:23 AM 79.0 °F 69.1 °F 72% 29.90 in 10.0 miles WSW 11.5 mph 17.3 mph N/A   Mostly Cloudy
10:51 AM 80.1 °F 70.0 °F 71% 29.91 in 10.0 miles WSW 9.2 mph - N/A   Mostly Cloudy
11:51 AM 81.0 °F 69.1 °F 67% 29.92 in 10.0 miles WSW 11.5 mph - N/A   Mostly Cloudy
12:07 PM 81.0 °F 69.1 °F 67% 29.93 in 10.0 miles West 12.7 mph 19.6 mph N/A   Mostly Cloudy
12:51 PM 82.9 °F 69.1 °F 63% 29.92 in 10.0 miles West 10.4 mph - N/A   Partly Cloudy
1:51 PM 84.9 °F 70.0 °F 61% 29.91 in 10.0 miles West 6.9 mph - N/A   Partly Cloudy
2:51 PM 86.0 °F 68.0 °F 55% 29.91 in 10.0 miles WSW 9.2 mph - N/A   Mostly Cloudy
3:51 PM 86.0 °F 68.0 °F 55% 29.91 in 10.0 miles West 6.9 mph - N/A   Mostly Cloudy
4:51 PM 88.0 °F 66.9 °F 49% 29.90 in 10.0 miles WSW 11.5 mph 18.4 mph N/A   Mostly Cloudy
5:51 PM 86.0 °F 66.9 °F 53% 29.91 in 10.0 miles WSW 11.5 mph - N/A   Partly Cloudy
6:51 PM 84.0 °F 71.1 °F 65% 29.91 in 10.0 miles SSW 9.2 mph - N/A   Mostly Cloudy
7:51 PM 81.0 °F 72.0 °F 74% 29.93 in 10.0 miles SW 8.1 mph - 0.00 in   Scattered Clouds
9:51 PM 73.0 °F 69.1 °F 87% 29.98 in 8.0 miles WSW 8.1 mph - 0.17 in Rain Light Rain

Powered by the Weather Underground, Inc.